カタログに戻る

DELTA 1 DEB

LostLEO
NORAD 29190·DEBRIS·🇺🇸 United States

打ち上げ Jan 11, 1968 から Vandenberg Space Force Base

Loading…

次のパス (今後24時間)

TLE

古いSource: Space-Track

元期: Jun 18, 2026, 15:47 UTC

1 29190U 68002P   26169.65778812  .00001231  00000-0  25160-2 0  9998
2 29190 105.8457  91.2445 0279835  38.4622 323.6061 13.23560005228319

AllMySatでDELTA 1 DEBをリアルタイム追跡

Download on the App Store